This demonstration page uses our WeatherBlox Daily Observations layout. Learn more.

Left ArrowRight Arrow

40.92501, -98.34201

Hourly Observations for May 9, 2020

Temp ( °F °C ) Dew Point ( °F °C ) Humidity (%) Winds ( mph kmh ) Pressure ( in mb ) Visibility ( mi km ) Precip ( " mm )
12:53 am 00:53 Clear 44 6.7 33 0.6 65 65 S 6 9 30.29 1026 10 16 0.00 0.00
1:53 am 01:53 Clear 42 5.6 30 -1.1 62 62 S 8 13 30.27 1025 10 16 0.00 0.00
2:53 am 02:53 Clear 43 6.1 29 -1.7 58 58 S 6 9 30.26 1025 10 16 0.00 0.00
3:53 am 03:53 Clear 41 5 29 -1.7 62 62 S 10 17 30.24 1024 10 16 0.00 0.00
4:53 am 04:53 Clear 42 5.6 30 -1.1 62 62 S 8 13 30.23 1024 10 16 0.00 0.00
5:53 am 05:53 Clear 44 6.7 31 -0.6 60 60 S 9 15 30.22 1023 10 16 0.00 0.00
6:53 am 06:53 Sunny 45 7.2 30 -1.1 56 56 SSW 10 17 30.22 1023 10 16 0.00 0.00
7:53 am 07:53 Mostly Cloudy 47 8.3 31 -0.6 54 54 SW 12 19 30.23 1024 10 16 0.00 0.00
8:53 am 08:53 Mostly Cloudy 50 10 32 0 50 50 SW 15 24 30.24 1024 10 16 0.00 0.00
9:53 am 09:53 Mostly Sunny 54 12.2 32 0 43 43 WSW 17 28 30.25 1024 10 16 0.00 0.00
10:53 am 10:53 Sunny 57 13.9 33 0.6 41 41 WSW 21 33 30.24 1024 10 16 0.00 0.00
11:53 am 11:53 Sunny 61 16.1 35 1.7 38 38 W 20 31 30.21 1023 10 16 0.00 0.00
12:53 pm 12:53 Mostly Cloudy 63 17.2 34 1.1 34 34 WSW 24 39 30.19 1022 10 16 0.00 0.00
1:53 pm 13:53 Cloudy 64 17.8 34 1.1 33 33 W 20 31 30.18 1022 10 16 0.00 0.00
2:21 pm 14:21 Cloudy 57 13.9 39 3.9 51 51 WNW 24 39 30.15 1021 10 16 0.00 0.00
2:53 pm 14:53 Cloudy with Light Rain 54 12.2 44 6.7 69 69 WNW 15 24 30.20 1023 10 16 0.00 0.00
3:53 pm 15:53 Cloudy with Light Rain 50 10 42 5.6 74 74 NNW 18 30 30.22 1023 10 16 0.00 0.00
4:53 pm 16:53 Cloudy with Light Rain 50 10 44 6.7 80 80 WNW 12 19 30.22 1023 7 11 0.00 0.00
5:53 pm 17:53 Cloudy 53 11.7 42 5.6 66 66 W 7 11 30.18 1022 10 16 0.02 0.51
6:53 pm 18:53 Sunny 56 13.3 42 5.6 60 60 WNW 9 15 30.18 1022 10 16 0.00 0.00
7:53 pm 19:53 Mostly Sunny 54 12.2 35 1.7 49 49 NNW 21 33 30.21 1023 10 16 0.00 0.00
8:53 pm 20:53 Clear 48 8.9 31 -0.6 52 52 NNW 18 30 30.25 1025 10 16 0.00 0.00
9:53 pm 21:53 Clear 44 6.7 28 -2.2 53 53 NNW 16 26 30.30 1026 10 16 0.00 0.00
10:53 pm 22:53 Partly Cloudy 43 6.1 27 -2.8 53 53 NNW 24 39 30.33 1027 10 16 0.00 0.00
11:53 pm 23:53 Cloudy 42 5.6 27 -2.8 55 55 NNW 20 31 30.35 1028 10 16 0.00 0.00

Powered by AerisWeather